COSMOS 1275 DEB, 13483

Orbit data source: Space-Track

COSMOS 1275 DEB, 13483 is space debris in LEO originally from a launch on Thu, 04 Jun 1981 UTC launched from the Plesetsk Missile And Space Complex (PKMTR). Debris objects in space refer to the collection of defunct objects orbiting the Earth. Examples of debris include non-operational satellites, rocket bodies, and fragments generated from explosions, collisions, or faulty payload assembly.

Loading next visibility...
Identifier
13483, 1981-053GD
Orbit
LEO
Country
Flag of CISCIS
Related business
Manufacturer
Unknown
Mission
Spacecraft
Bus & Motor
Unknown
Mass
Unknown
Launch date (UTC)
1981-06-04 (45 years ago)
Launch vehicle
Unknown
Launch site
Plesetsk Missile And Space Complex (PKMTR)
Object type
Payload
Rocket body
Debris
Shape & HBR
Unknown shape, 0.1 m
Radar Cross Section
Small (<0.1 m²)

Expand to show TLE details & history
Last TLE update: 2 days ago

TLE from 2 days ago
0 COSMOS 1275 DEB
1 13483U 81053GD  26099.07134074  .00001641  00000-0  72956-3 0  9992
2 13483  82.9212 141.4546 0006744 309.1262  80.0512 14.22434927237583
Epoch: 2026-04-09T01:42Z
TLE epoch observation values (Epoch: 2026-04-09T01:42:43.839Z)
Latitude
29.0562°
Longitude
-77.61747°
Altitude
819.944 km
Speed
7.446 km/s
True Right ascension
09h 41m 33s
True Declination
28° 54' 42"
Sunlit
Object was in full shadow at epoch
Visualization orbit readout
Latitude
Unknown
Longitude
Unknown
Altitude
Unknown
Speed
Unknown
Apparent Right ascension
Unknown
Apparent Declination
Unknown
Sunlit
N/A
Visualization observer readout
Local Sidereal Time
02:08:07
Azimuth
Unknown
Elevation
Unknown
Doppler factor
Unknown
Orbital elements
Apogee altitude
819.065 km
Perigee altitude
809.364 km
Semi-major axis
7,192.351 km
Eccentricity
0.00067
Inclination
82.9212°
RAAN
141.4546°
Arg. of periapsis
309.1262°
True anomaly
80.12733°
Mean anomaly
80.0512°
Eccentric anomaly
80.08926°
Mean motion
3.55825 °/min
Orbital period
101.17 mins
BSTAR
0.00072956
Loading maneuver chart data...
Computing Atmospheric mass density...

Documentation

Showing up to 5 results
|